Temperature
15 14 13 12 10 8 6 5 3 2 1 1 0 -1 -1 -2 -3 -4 -4 -5 -5 -6 -7 -8 -8 -8 -9 -9 -9 -10 -11 -11 -12 -12 -12 -11 -11 -11 -10 -10 -10 -10 -10
15 14 13 11 10 8 6 5 3 2 1 1 -0 -1 -1 -2 -3 -3 -4 -4 -5 -6 -7 -8 -8 -8 -8 -9 -9 -10 -11 -11 -12 -12 -12 -11 -11 -11 -11 -11 -11 -11 -11
15 14 13 11 10 9 7 5 3 2 1 0 -0 -1 -1 -2 -3 -3 -4 -4 -5 -6 -7 -8 -8 -8 -9 -9 -9 -10 -10 -11 -11 -11 -12 -11 -11 -11 -11 -11 -11 -11 -11
14 13 13 12 11 9 7 5 3 2 1 0 -0 -1 -1 -2 -3 -3 -4 -4 -5 -6 -7 -8 -8 -8 -9 -9 -9 -10 -10 -10 -11 -11 -11 -11 -11 -11 -11 -11 -11 -11 -11
14 13 13 12 10 8 7 5 3 2 1 0 -1 -1 -2 -2 -2 -3 -4 -5 -5 -6 -7 -8 -8 -9 -9 -9 -9 -10 -10 -10 -10 -10 -11 -11 -11 -11 -11 -11 -12 -12 -12
14 13 13 11 10 8 6 4 3 1 1 -0 -1 -1 -2 -2 -3 -3 -4 -5 -6 -6 -7 -8 -8 -9 -9 -9 -10 -10 -10 -9 -9 -10 -10 -10 -11 -11 -11 -12 -12 -12 -12
13 13 12 11 10 8 5 3 2 1 0 -0 -1 -1 -2 -2 -3 -3 -4 -6 -6 -7 -7 -8 -8 -9 -9 -9 -9 -9 -9 -9 -10 -10 -11 -11 -11 -11 -12 -12 -12 -12 -12
12 12 11 10 9 7 5 3 2 1 0 -0 -1 -1 -2 -2 -3 -4 -4 -5 -6 -6 -7 -8 -8 -9 -9 -9 -9 -9 -9 -9 -10 -11 -11 -11 -11 -11 -11 -11 -11 -11 -12
11 11 10 9 8 6 4 3 2 1 0 -0 -1 -2 -2 -3 -3 -4 -4 -5 -5 -6 -7 -8 -8 -9 -9 -9 -9 -9 -9 -10 -10 -11 -11 -12 -12 -12 -12 -12 -12 -12 -12
10 9 9 8 7 6 4 3 1 0 -0 -1 -1 -2 -2 -3 -3 -4 -4 -5 -5 -6 -7 -7 -8 -9 -9 -9 -9 -9 -10 -10 -10 -11 -11 -11 -12 -12 -13 -13 -13 -13 -13
8 8 8 7 6 5 3 1 0 -1 -1 -1 -1 -2 -3 -3 -3 -4 -4 -5 -5 -6 -7 -8 -8 -9 -9 -9 -9 -10 -10 -10 -10 -11 -11 -12 -12 -13 -13 -13 -13 -13 -13
8 8 7 6 5 4 2 0 -1 -2 -2 -2 -2 -2 -3 -3 -4 -4 -4 -5 -6 -7 -8 -8 -8 -9 -9 -10 -10 -10 -10 -11 -11 -11 -12 -12 -12 -12 -12 -12 -12 -12 -12
7 7 6 6 4 3 1 -1 -2 -2 -3 -2 -2 -2 -2 -3 -3 -4 -4 -5 -6 -7 -8 -8 -9 -9 -9 -9 -10 -10 -11 -11 -11 -12 -12 -12 -12 -12 -12 -12 -12 -12 -11
6 6 5 4 3 2 -0 -1 -2 -3 -3 -3 -2 -2 -2 -3 -3 -4 -4 -5 -6 -7 -7 -8 -8 -9 -9 -9 -9 -10 -10 -11 -12 -12 -12 -12 -12 -12 -12 -12 -12 -11 -11
5 5 4 3 2 1 -1 -2 -2 -2 -2 -2 -1 -2 -2 -3 -3 -4 -5 -5 -6 -7 -8 -8 -8 -8 -9 -9 -9 -10 -10 -11 -11 -11 -12 -12 -12 -12 -11 -11 -11 -11 -11
4 4 3 2 1 -0 -2 -3 -3 -4 -3 -3 -3 -3 -3 -3 -4 -4 -5 -5 -6 -7 -8 -8 -8 -8 -9 -9 -10 -10 -10 -11 -11 -11 -11 -11 -12 -11 -11 -11 -11 -11 -10
3 3 2 2 0 -1 -2 -3 -4 -5 -5 -5 -4 -3 -3 -3 -4 -4 -5 -6 -6 -7 -8 -8 -8 -8 -9 -9 -10 -10 -10 -11 -11 -11 -11 -11 -11 -11 -11 -11 -11 -10 -10
2 2 2 1 -0 -2 -3 -4 -5 -5 -5 -5 -4 -4 -4 -4 -4 -5 -5 -6 -6 -7 -7 -8 -8 -8 -9 -9 -10 -10 -10 -11 -11 -11 -11 -11 -11 -11 -11 -11 -11 -10 -10
1 1 1 0 -1 -2 -4 -5 -6 -6 -6 -6 -4 -4 -4 -5 -5 -6 -6 -6 -6 -7 -7 -8 -8 -8 -9 -9 -10 -10 -10 -11 -11 -11 -11 -11 -11 -11 -11 -11 -10 -10 -10
1 1 -0 -1 -2 -3 -4 -6 -6 -7 -7 -7 -5 -4 -4 -5 -5 -5 -5 -5 -6 -6 -7 -8 -8 -8 -9 -9 -10 -10 -10 -10 -11 -11 -11 -11 -11 -11 -11 -10 -10 -10 -9
0 -0 -1 -1 -2 -3 -5 -6 -7 -7 -7 -7 -5 -4 -4 -4 -4 -4 -5 -5 -6 -6 -7 -7 -8 -8 -9 -9 -9 -10 -10 -10 -11 -11 -11 -11 -11 -11 -11 -10 -10 -10 -9
-0 -1 -1 -2 -3 -4 -5 -6 -7 -8 -8 -7 -6 -5 -5 -5 -5 -5 -5 -5 -6 -7 -7 -7 -8 -8 -9 -9 -9 -10 -10 -10 -11 -11 -11 -11 -11 -11 -10 -10 -10 -10 -9
-1 -1 -2 -2 -3 -4 -6 -7 -8 -8 -8 -8 -7 -6 -5 -5 -4 -5 -5 -6 -6 -7 -7 -7 -8 -8 -9 -9 -9 -10 -10 -10 -11 -11 -11 -11 -11 -11 -10 -10 -10 -9 -9
-1 -1 -2 -3 -4 -5 -6 -7 -8 -8 -8 -8 -7 -6 -5 -5 -4 -5 -5 -6 -6 -7 -7 -7 -8 -8 -8 -9 -9 -9 -10 -10 -10 -11 -11 -11 -11 -11 -10 -10 -10 -9 -9
-1 -2 -3 -3 -4 -5 -6 -7 -8 -8 -8 -8 -7 -6 -5 -5 -5 -5 -5 -6 -6 -7 -7 -7 -8 -8 -8 -9 -9 -9 -10 -10 -10 -10 -10 -11 -11 -10 -10 -10 -10 -9 -9
-2 -2 -3 -4 -5 -5 -6 -7 -8 -8 -8 -8 -7 -6 -5 -5 -5 -5 -5 -6 -6 -7 -7 -7 -7 -8 -8 -9 -9 -9 -10 -10 -10 -10 -10 -10 -10 -10 -10 -10 -10 -9 -9
Wind_Speed
17 18 17 17 17 16 16 16 15 13 14 13 13 12 12 11 10 10 10 10 11 12 11 12 15 14 13 13 13 13 14 15 20 19 14 13 14 16 16 18 21 20 22
14 15 17 15 16 17 18 17 15 15 14 14 13 12 12 11 11 11 12 11 11 13 13 13 15 13 15 14 13 15 15 15 18 22 17 14 16 16 15 15 15 17 16
12 14 16 17 18 20 19 17 16 16 15 14 13 13 12 11 11 11 11 12 12 13 13 14 15 15 16 14 15 15 15 15 15 18 19 16 15 14 15 15 16 13 16
12 15 18 20 20 20 18 17 17 17 15 15 14 13 12 11 11 11 11 11 12 13 14 15 15 15 16 15 15 16 15 16 16 16 18 17 15 13 12 13 14 12 13
14 17 20 18 17 16 17 17 16 16 16 14 13 12 11 10 10 11 11 12 13 14 14 14 15 17 20 18 16 13 13 14 14 15 16 15 14 12 12 12 14 13 12
16 18 16 15 16 17 17 16 15 15 13 13 13 12 12 10 16 19 16 12 12 13 13 12 12 15 19 24 27 27 24 19 16 15 15 15 16 14 13 13 13 14 14
15 16 14 14 16 16 16 15 16 16 14 13 13 12 13 14 19 20 21 13 11 10 10 10 11 11 17 11 21 26 24 25 24 17 16 16 17 15 16 17 16 16 15
14 15 14 14 16 14 15 16 15 13 13 13 13 13 12 14 18 19 20 13 9 9 9 10 11 11 13 16 16 15 11 12 16 14 13 16 15 15 15 16 15 14 14
14 15 14 14 15 15 17 17 15 13 13 14 12 13 13 13 17 18 18 8 8 9 10 10 11 11 20 25 18 12 10 11 18 21 22 22 26 25 20 12 10 10 12
14 14 12 13 16 17 18 16 13 13 14 13 12 12 13 12 15 17 17 7 8 9 8 9 14 15 21 23 14 10 12 14 11 10 14 18 15 16 20 11 8 9 9
11 10 11 13 15 15 13 12 11 13 12 12 12 11 11 13 14 17 17 8 8 9 9 6 7 17 21 22 19 9 16 17 8 10 11 11 10 8 9 9 9 9 10
9 10 11 12 12 12 12 12 12 13 13 12 11 10 9 10 13 15 17 15 13 9 7 6 8 17 20 20 15 17 22 18 9 11 11 11 11 10 9 9 10 11 11
10 10 10 10 11 10 12 12 12 12 12 11 11 10 9 8 10 17 17 16 15 8 6 11 14 17 17 12 15 19 16 9 10 11 12 12 10 10 10 9 9 9 10
11 10 8 8 9 10 11 12 12 13 13 12 11 10 9 7 8 7 7 7 10 9 7 9 12 13 11 12 12 11 8 9 11 10 11 11 11 10 10 9 9 8 7
11 9 7 8 9 10 12 12 13 14 15 15 12 11 10 9 12 15 10 8 7 7 5 2 2 4 5 6 7 7 7 8 10 10 11 11 12 11 11 9 8 7 6
10 8 7 6 8 9 9 10 19 18 22 24 18 14 11 11 13 16 16 13 11 10 4 2 3 4 6 7 8 9 8 9 10 10 11 11 11 11 11 10 8 8 8
11 9 6 7 8 9 9 11 10 14 21 22 22 20 16 15 15 15 14 11 9 7 3 3 3 4 5 6 7 8 8 9 9 9 10 11 11 11 11 10 9 9 8
10 12 9 7 8 9 10 10 9 10 11 11 16 21 20 18 17 15 13 8 4 4 3 4 4 4 5 6 7 7 8 9 9 9 10 10 10 11 11 10 10 10 10
10 8 7 7 8 9 9 9 9 10 10 8 6 11 19 18 17 16 12 5 5 5 4 4 4 4 5 6 7 7 8 8 9 9 9 10 10 10 10 11 10 14 12
9 14 11 7 7 8 8 9 10 10 10 9 10 10 10 9 7 7 6 5 5 5 5 4 4 4 4 5 6 7 7 8 9 8 9 10 10 10 11 12 11 11 10
9 10 13 9 7 8 8 9 9 10 10 10 9 11 17 10 9 9 7 6 6 6 5 4 4 4 4 5 5 6 8 8 8 8 9 9 10 10 10 10 11 11 11
8 8 7 7 7 8 8 9 9 10 10 10 7 10 19 10 8 8 7 7 6 5 5 4 4 4 4 5 5 6 7 8 8 8 8 9 9 10 10 10 11 11 11
8 8 8 7 6 10 10 9 9 10 9 9 8 9 10 9 9 8 7 6 6 5 5 4 4 4 4 4 5 5 6 7 7 7 8 9 9 10 10 11 13 13 12
8 8 8 7 7 7 8 9 9 10 10 9 9 9 9 9 8 8 7 6 6 5 5 4 4 4 6 5 5 5 6 7 7 6 8 7 9 10 10 11 12 13 13
8 8 8 7 7 7 8 9 9 10 10 10 9 9 8 8 8 8 7 6 6 5 5 4 3 3 5 6 7 7 11 13 10 6 5 5 8 9 10 11 11 13 12
8 8 7 7 7 7 8 9 9 10 10 9 9 8 8 8 8 8 7 7 6 5 4 3 3 3 5 5 7 11 14 11 10 11 6 5 7 9 10 9 13 12 13
Wind_Direction
209 208 211 209 207 205 206 206 203 199 197 200 201 206 212 218 220 226 235 238 244 253 254 255 259 261 264 265 263 263 263 263 273 283 281 281 277 277 279 278 278 277 279
209 208 212 210 205 207 211 208 201 200 199 201 201 207 214 219 220 226 238 244 244 253 258 259 263 266 266 267 267 267 267 266 270 280 283 281 276 275 275 275 278 278 275
205 209 212 212 210 212 212 207 202 201 200 199 200 207 213 218 223 229 236 244 247 252 256 259 263 266 269 268 268 270 270 270 267 273 279 280 277 275 275 275 274 272 273
209 213 217 218 216 215 212 207 203 201 199 199 202 207 212 217 225 232 236 244 250 254 256 258 260 262 265 268 271 269 269 269 269 270 275 278 276 273 271 277 280 273 273
214 220 224 222 218 216 212 208 203 200 200 197 198 205 211 216 225 231 238 244 248 255 259 258 259 264 269 277 282 280 275 275 275 274 277 280 282 283 280 279 279 281 274
220 227 227 220 217 216 214 207 202 200 196 191 197 203 211 221 237 246 249 243 245 252 261 262 261 270 279 285 290 293 291 289 291 288 289 288 288 286 284 279 280 280 280
226 232 227 222 221 217 212 208 204 199 192 192 198 203 216 228 239 251 259 261 255 253 257 264 272 274 287 283 287 290 289 289 294 295 292 289 289 286 282 277 270 266 268
232 235 228 221 222 217 211 211 207 198 194 195 200 205 216 230 238 249 260 264 261 255 252 257 266 272 277 285 282 283 274 274 284 286 277 280 283 283 277 274 272 269 266
241 239 230 219 219 215 214 212 204 196 195 197 199 202 212 229 236 247 258 255 260 259 256 259 266 270 285 295 300 297 290 287 298 299 300 303 304 305 302 297 286 278 277
250 246 233 219 217 218 217 211 202 197 197 195 200 203 210 221 231 241 252 249 259 266 265 261 275 285 295 302 306 304 302 299 297 299 302 302 298 296 299 294 285 277 277
261 250 236 224 221 221 216 206 197 196 193 195 199 202 208 219 229 239 247 238 247 263 272 268 270 293 300 307 313 308 301 312 319 308 303 300 296 291 284 274 263 257 257
265 253 240 226 218 216 209 203 194 193 193 195 198 203 212 220 227 235 241 246 253 254 265 268 277 296 305 312 315 309 314 324 319 310 308 309 309 305 297 286 273 258 248
272 259 246 227 215 206 203 200 194 194 197 197 197 205 211 209 219 230 235 244 255 259 260 278 292 304 312 313 308 314 323 320 310 311 312 310 307 300 300 296 286 271 258
277 268 247 226 216 207 204 201 200 201 201 199 198 204 206 203 203 211 221 241 252 264 275 284 297 306 308 306 310 314 311 306 313 311 309 307 308 308 307 306 304 300 284
280 270 250 229 217 211 211 211 209 211 207 200 199 195 194 204 211 205 200 213 219 235 247 237 276 300 304 306 306 306 308 313 317 315 313 314 316 316 315 314 305 303 290
284 273 253 233 220 214 214 221 226 221 223 219 208 196 201 201 200 204 212 224 239 251 250 237 276 290 298 306 311 314 314 315 317 318 317 316 317 317 316 315 312 307 300
277 274 256 236 223 216 214 216 223 225 225 222 214 203 198 198 199 203 212 222 236 248 231 235 260 278 290 299 304 307 309 310 312 313 315 316 318 318 317 318 319 316 309
280 275 264 242 226 219 216 214 213 210 209 212 214 209 203 201 203 206 209 208 214 211 201 229 251 268 283 295 301 305 307 311 313 316 316 317 319 319 319 319 318 315 311
286 277 264 247 230 221 215 212 210 210 211 203 189 204 206 206 205 206 204 190 196 209 215 228 241 259 278 290 297 301 303 306 309 314 316 318 320 321 318 318 317 318 318
287 283 278 257 235 222 214 211 209 208 208 201 197 194 189 186 185 190 187 177 195 208 214 226 240 255 273 284 293 299 304 305 309 313 317 320 320 319 318 317 317 316 312
290 288 283 266 234 220 213 210 208 208 207 205 201 195 187 185 188 188 190 193 199 205 209 218 234 256 270 282 289 296 301 305 307 312 317 320 322 322 320 317 316 315 313
286 283 271 258 237 221 216 209 208 208 207 203 193 196 196 187 183 186 192 198 195 195 198 205 225 244 259 275 287 295 300 304 307 312 317 319 321 323 324 324 324 323 321
280 278 269 256 239 228 222 209 206 206 204 200 191 188 190 184 185 187 189 187 183 190 195 202 223 249 265 276 281 283 289 296 298 302 312 320 325 328 329 329 328 329 329
275 270 263 252 235 222 213 206 203 203 200 195 191 192 190 182 181 182 178 174 177 184 190 200 221 249 276 292 290 289 284 287 286 289 303 315 324 328 330 332 331 332 332
277 269 259 244 230 219 212 205 200 197 196 194 193 191 187 179 176 174 169 168 172 181 190 200 219 251 281 295 297 297 306 315 324 328 320 323 324 326 331 333 336 337 340
280 271 257 238 224 215 208 202 197 193 192 191 190 186 182 178 174 169 165 166 170 177 184 197 220 253 287 295 297 306 317 326 335 345 354 329 331 336 343 342 341 346 347
Height
1446 1445 1445 1444 1445 1446 1447 1449 1451 1454 1455 1456 1457 1457 1457 1457 1456 1455 1453 1451 1449 1446 1443 1440 1436 1434 1430 1426 1422 1417 1412 1406 1394 1383 1382 1378 1375 1371 1367 1364 1361 1356 1352
1438 1437 1436 1435 1435 1435 1436 1438 1441 1443 1445 1446 1447 1448 1448 1449 1448 1447 1445 1443 1440 1437 1435 1432 1428 1426 1422 1418 1413 1408 1403 1397 1390 1378 1373 1370 1366 1362 1358 1354 1351 1347 1343
1430 1428 1427 1425 1424 1424 1425 1428 1430 1432 1434 1436 1437 1438 1440 1440 1440 1439 1437 1435 1432 1429 1426 1423 1420 1418 1413 1409 1404 1399 1393 1388 1382 1373 1364 1361 1356 1353 1349 1345 1341 1337 1334
1422 1420 1417 1415 1414 1414 1415 1417 1419 1421 1423 1426 1428 1430 1431 1432 1432 1431 1429 1427 1424 1421 1418 1415 1412 1409 1405 1400 1395 1389 1384 1379 1373 1366 1357 1351 1347 1344 1341 1336 1331 1328 1324
1414 1411 1408 1406 1405 1404 1404 1405 1408 1410 1413 1416 1419 1421 1423 1423 1424 1423 1421 1419 1416 1413 1410 1407 1404 1401 1397 1394 1389 1383 1377 1371 1364 1357 1350 1344 1339 1336 1332 1328 1323 1318 1314
1407 1403 1400 1397 1394 1393 1393 1395 1398 1401 1404 1407 1410 1412 1414 1415 1416 1415 1413 1411 1408 1405 1402 1399 1396 1393 1390 1385 1381 1376 1371 1365 1358 1351 1344 1338 1332 1328 1323 1319 1315 1310 1305
1399 1395 1392 1388 1385 1383 1384 1385 1387 1390 1394 1398 1401 1404 1405 1407 1407 1407 1406 1404 1401 1398 1395 1392 1388 1385 1382 1377 1371 1366 1362 1357 1353 1346 1337 1329 1323 1319 1314 1309 1305 1301 1297
1392 1387 1384 1379 1376 1375 1374 1374 1377 1381 1384 1388 1392 1395 1397 1398 1399 1399 1398 1396 1393 1390 1388 1385 1381 1377 1373 1369 1363 1358 1353 1348 1343 1335 1329 1321 1315 1310 1305 1300 1296 1292 1289
1383 1379 1375 1371 1367 1365 1364 1364 1367 1371 1375 1379 1383 1386 1388 1390 1391 1391 1390 1388 1385 1383 1380 1378 1374 1370 1366 1362 1358 1352 1345 1339 1334 1328 1322 1315 1308 1301 1296 1292 1288 1285 1282
1375 1370 1366 1361 1358 1355 1354 1355 1357 1361 1365 1370 1374 1377 1379 1381 1383 1383 1383 1381 1378 1376 1373 1370 1368 1364 1360 1357 1353 1346 1338 1331 1325 1318 1312 1305 1298 1292 1288 1285 1281 1278 1276
1366 1361 1357 1353 1349 1347 1346 1346 1348 1352 1356 1360 1365 1368 1371 1373 1375 1375 1375 1374 1371 1369 1366 1363 1361 1358 1355 1352 1347 1341 1334 1328 1320 1312 1304 1297 1290 1285 1280 1277 1274 1272 1269
1358 1353 1349 1344 1341 1339 1338 1338 1340 1343 1347 1351 1356 1359 1362 1365 1366 1367 1368 1367 1365 1363 1360 1357 1355 1352 1349 1346 1340 1335 1330 1323 1315 1306 1299 1291 1285 1279 1274 1270 1267 1264 1262
1350 1345 1341 1336 1333 1331 1330 1330 1331 1334 1338 1342 1346 1350 1354 1356 1359 1360 1360 1360 1359 1357 1354 1352 1350 1347 1343 1339 1335 1330 1325 1317 1310 1302 1295 1287 1281 1274 1268 1264 1260 1257 1255
1342 1337 1333 1328 1325 1323 1322 1322 1323 1325 1328 1333 1337 1342 1346 1349 1351 1353 1353 1353 1352 1351 1349 1347 1345 1342 1339 1335 1330 1326 1320 1314 1307 1300 1292 1284 1277 1270 1265 1260 1255 1252 1249
1335 1330 1325 1321 1318 1316 1315 1315 1315 1317 1321 1325 1329 1334 1338 1341 1344 1346 1347 1347 1346 1345 1343 1341 1339 1337 1334 1330 1326 1321 1316 1310 1304 1297 1289 1281 1274 1267 1262 1257 1252 1248 1246
1328 1323 1319 1314 1311 1309 1308 1307 1308 1311 1315 1319 1324 1328 1332 1335 1338 1339 1341 1341 1341 1340 1339 1336 1335 1332 1329 1326 1322 1317 1312 1307 1301 1294 1287 1279 1272 1265 1259 1254 1250 1246 1242
1322 1317 1312 1308 1304 1302 1301 1301 1301 1304 1308 1312 1316 1321 1325 1329 1331 1333 1335 1336 1336 1335 1334 1332 1330 1328 1326 1323 1319 1314 1310 1305 1299 1292 1285 1278 1270 1263 1257 1251 1247 1242 1239
1316 1311 1306 1301 1298 1296 1294 1294 1295 1297 1300 1304 1309 1314 1318 1322 1325 1327 1329 1330 1330 1330 1329 1328 1326 1325 1322 1320 1316 1312 1307 1302 1297 1290 1283 1276 1269 1262 1255 1250 1244 1240 1236
1310 1305 1300 1295 1291 1289 1288 1288 1289 1291 1294 1298 1303 1308 1313 1316 1320 1322 1324 1325 1325 1325 1324 1323 1322 1321 1319 1317 1314 1310 1305 1300 1295 1289 1282 1275 1268 1261 1254 1248 1243 1238 1233
1303 1298 1294 1289 1285 1283 1282 1282 1283 1285 1288 1291 1296 1301 1306 1311 1313 1316 1318 1319 1320 1320 1320 1319 1319 1318 1316 1314 1311 1307 1303 1299 1293 1287 1281 1274 1267 1260 1253 1247 1241 1235 1230
1297 1292 1287 1283 1279 1277 1276 1276 1278 1280 1282 1285 1289 1295 1300 1304 1307 1311 1313 1315 1316 1316 1316 1315 1315 1314 1313 1311 1308 1305 1301 1297 1292 1286 1280 1273 1266 1259 1252 1246 1239 1233 1228
1290 1285 1281 1277 1273 1271 1270 1271 1272 1274 1277 1281 1285 1290 1295 1299 1303 1306 1309 1311 1312 1312 1312 1312 1312 1311 1310 1308 1306 1303 1300 1295 1291 1285 1279 1272 1266 1258 1251 1245 1238 1232 1226
1284 1279 1275 1271 1268 1266 1265 1265 1267 1269 1272 1276 1280 1285 1290 1293 1298 1301 1304 1307 1308 1308 1308 1308 1309 1308 1308 1306 1304 1302 1298 1294 1290 1285 1279 1272 1266 1258 1251 1244 1238 1231 1225
1277 1273 1268 1264 1262 1260 1260 1260 1262 1265 1268 1272 1276 1281 1285 1290 1294 1298 1301 1303 1304 1305 1305 1305 1306 1306 1305 1304 1302 1300 1297 1294 1289 1285 1279 1273 1267 1259 1252 1245 1238 1232 1225
1270 1266 1262 1258 1256 1254 1254 1255 1257 1260 1264 1267 1272 1277 1282 1286 1290 1294 1297 1300 1301 1302 1302 1303 1303 1303 1303 1302 1300 1299 1296 1293 1289 1285 1280 1274 1268 1261 1254 1247 1240 1233 1227
1263 1259 1255 1252 1250 1249 1249 1251 1253 1256 1260 1264 1268 1273 1279 1283 1287 1291 1294 1296 1298 1299 1300 1300 1301 1301 1301 1300 1299 1298 1295 1293 1289 1285 1280 1274 1268 1262 1255 1248 1242 1236 1230